Notices

What's New in latest Release from April 7th, 2021:

- Updated Glossary, including Speed of Maximum Gust, and Total Hourly Precipitation

- Updated national and regional climate services offices contacts and prices information

- Addition of station inventory lists for 1981-2010, 1971-2000, and 1961-1990 Normals.

If you haven't already, please take our survey and provide feedback about our website: https://eccc.sondage-survey.ca/f/LanguageSelection.aspx?s=442ca660-fcf1-47c0-95a9-59707d6fd709

Hourly Data Report for April 03, 2017

MIRAMICHI RCS
NEW BRUNSWICK

47°00'34.000" N
65°27'54.000" W
33.00 m
8100989
71744
ACQ

Download Data

Hourly Data (April 2017)
Hourly Data Report for April 3, 2017
TIME
LST
Temp Definition
°C
Dew Point Definition
°C
Rel Hum Definition
%
Precip. Amount Definition
mm

Wind Dir Definition
10's deg

Wind Spd Definition
km/h
Visibility Definition
km
Stn Press Definition
kPa
Hmdx Definition


Wind Chill Definition


Weather Definition


00:00 -5.4 -5.9 96 0.0 11 2   100.84   -6 LegendNANA
01:00 -6.0 -6.6 96 0.0 11 2   100.83   -7 LegendNANA
02:00 -5.2 -5.7 97 0.0 7 1   100.81   -6 LegendNANA
03:00 -5.9 -6.5 95 0.0   0   100.80     LegendNANA
04:00 -6.1 -6.7 96 0.0 6 3   100.80   -8 LegendNANA
05:00 -6.2 -6.8 96 0.0 0 1   100.87   -7 LegendNANA
06:00 -6.3 -7.0 95 0.0 2 2   100.91   -7 LegendNANA
07:00 -6.6 -7.6 92 0.0 35 4   100.97   -9 LegendNANA
08:00 -4.4 -5.7 91 0.0 30 4   101.00   -6 LegendNANA
09:00 -0.5 -3.8 78 0.0 4 2   101.01   -1 LegendNANA
10:00 0.7 -3.4 74 0.0 0 1   101.01     LegendNANA
11:00 2.4 -4.1 62 0.0 2 10   101.02     LegendNANA
12:00 4.0 -4.7 53 0.0 3 7   101.00     LegendNANA
13:00 5.7 -4.5 48 0.0 8 5   100.99     LegendNANA
14:00 6.1 -5.6 43 0.0 5 13   100.98     LegendNANA
15:00 4.6 -3.9 54 0.0 9 13   101.02     LegendNANA
16:00
17:00 3.8 -4.2 56 0.0 8 11   100.99     LegendNANA
18:00 3.9 -5.0 52 0.0 7 8   101.08     LegendNANA
19:00 1.3 -4.5 65 0.0 4 11   101.14     LegendNANA
20:00 -0.9 -4.4 77 0.0 5 3   101.25   -2 LegendNANA
21:00 -1.8 -4.1 84 0.0 4 3   101.29   -3 LegendNANA
22:00 -2.6 -4.4 88 0.0   0   101.30     LegendNANA
23:00 -3.4 -4.9 89 0.0 0 1   101.34   -4 LegendNANA

Notes on Data Quality.

Legend

  • E = Estimated
  • M = Missing
  • NA = Not Available*
  • [empty] = Indicates an unobserved value
Date modified: